TimeCST,TemperatureF,Dew PointF,Humidity,Sea Level PressureIn,VisibilityMPH,Wind Direction,Wind SpeedMPH,Gust SpeedMPH,PrecipitationIn,Events,Conditions,WindDirDegrees,DateUTC
12:15 AM,18.3,12.2,77,29.60,10.0,ENE,3.5,-,N/A,,Overcast,60,2014-01-14 06:15:00
12:35 AM,18.7,12.2,76,29.60,10.0,NE,4.6,-,N/A,,Mostly Cloudy,50,2014-01-14 06:35:00
12:55 AM,19.0,12.7,76,29.61,10.0,ENE,4.6,-,N/A,,Scattered Clouds,70,2014-01-14 06:55:00
1:15 AM,19.9,13.1,75,29.61,10.0,NE,5.8,-,N/A,,Mostly Cloudy,40,2014-01-14 07:15:00
1:35 AM,19.4,12.7,75,29.61,10.0,NE,6.9,-,N/A,,Overcast,50,2014-01-14 07:35:00
1:55 AM,19.8,12.4,73,29.63,10.0,NE,5.8,-,N/A,,Overcast,50,2014-01-14 07:55:00
2:15 AM,19.4,12.2,74,29.63,10.0,NE,5.8,-,N/A,,Overcast,50,2014-01-14 08:15:00
2:35 AM,19.4,12.2,74,29.63,10.0,NE,6.9,-,N/A,,Overcast,40,2014-01-14 08:35:00
2:55 AM,19.0,12.2,75,29.64,10.0,NNE,5.8,-,N/A,,Overcast,20,2014-01-14 08:55:00
3:15 AM,19.0,12.2,75,29.64,10.0,NNE,4.6,-,N/A,,Overcast,30,2014-01-14 09:15:00
3:35 AM,19.2,12.9,76,29.64,10.0,NNE,6.9,-,N/A,,Overcast,30,2014-01-14 09:35:00
3:55 AM,19.4,12.0,73,29.64,10.0,NE,5.8,-,N/A,,Overcast,40,2014-01-14 09:55:00
4:15 AM,19.0,12.0,74,29.65,10.0,NNE,6.9,-,N/A,,Overcast,20,2014-01-14 10:15:00
4:35 AM,18.5,11.8,75,29.66,10.0,NNE,5.8,-,N/A,,Overcast,20,2014-01-14 10:35:00
4:55 AM,18.3,10.9,73,29.66,10.0,NNE,5.8,-,N/A,,Overcast,20,2014-01-14 10:55:00
5:15 AM,18.5,10.8,72,29.67,10.0,NNE,5.8,-,N/A,,Overcast,20,2014-01-14 11:15:00
5:35 AM,18.5,10.4,71,29.68,10.0,North,6.9,-,N/A,,Overcast,10,2014-01-14 11:35:00
5:55 AM,17.6,9.1,69,29.69,10.0,NNE,6.9,-,N/A,,Overcast,20,2014-01-14 11:55:00
6:15 AM,17.2,8.8,69,29.70,10.0,North,4.6,-,N/A,,Overcast,10,2014-01-14 12:15:00
6:35 AM,16.7,8.2,69,29.71,10.0,North,8.1,-,N/A,,Overcast,10,2014-01-14 12:35:00
6:55 AM,16.5,7.9,69,29.72,10.0,North,9.2,-,N/A,,Overcast,10,2014-01-14 12:55:00
7:15 AM,15.8,7.5,70,29.73,10.0,North,8.1,-,N/A,,Overcast,10,2014-01-14 13:15:00
7:35 AM,16.2,7.5,69,29.74,10.0,North,9.2,-,N/A,,Overcast,10,2014-01-14 13:35:00
7:55 AM,15.8,7.5,70,29.75,10.0,North,6.9,-,N/A,,Overcast,350,2014-01-14 13:55:00
8:15 AM,14.9,7.5,73,29.76,10.0,NNW,9.2,-,N/A,,Overcast,340,2014-01-14 14:15:00
8:35 AM,14.7,6.6,70,29.77,10.0,North,8.1,-,N/A,,Overcast,10,2014-01-14 14:35:00
8:55 AM,14.0,6.4,72,29.79,10.0,North,5.8,-,N/A,,Overcast,360,2014-01-14 14:55:00
9:15 AM,13.1,5.9,73,29.80,10.0,North,8.1,-,N/A,,Overcast,350,2014-01-14 15:15:00
9:35 AM,12.9,5.5,72,29.82,10.0,North,6.9,-,N/A,,Overcast,350,2014-01-14 15:35:00
9:55 AM,12.9,5.0,71,29.84,10.0,North,4.6,-,N/A,,Overcast,360,2014-01-14 15:55:00
10:15 AM,13.3,4.8,69,29.86,10.0,North,5.8,-,N/A,,Overcast,360,2014-01-14 16:15:00
10:35 AM,12.6,5.0,72,29.88,10.0,NNW,10.4,-,N/A,,Overcast,340,2014-01-14 16:35:00
10:55 AM,12.6,5.0,72,29.88,10.0,NNW,9.2,-,N/A,,Overcast,340,2014-01-14 16:55:00
11:15 AM,12.9,5.2,71,29.88,10.0,North,6.9,-,N/A,,Overcast,360,2014-01-14 17:15:00
11:35 AM,12.7,4.8,71,29.89,10.0,North,10.4,-,N/A,,Overcast,350,2014-01-14 17:35:00
11:55 AM,12.6,4.6,71,29.90,10.0,NNW,13.8,-,N/A,,Overcast,340,2014-01-14 17:55:00
12:15 PM,13.1,4.8,70,29.90,10.0,NNW,11.5,-,N/A,,Overcast,340,2014-01-14 18:15:00
12:35 PM,13.3,5.0,70,29.91,10.0,NNW,10.4,-,N/A,,Overcast,340,2014-01-14 18:35:00
12:55 PM,14.0,5.0,67,29.91,10.0,NNW,9.2,-,N/A,,Mostly Cloudy,340,2014-01-14 18:55:00
1:15 PM,14.7,5.4,66,29.92,10.0,NNW,10.4,-,N/A,,Scattered Clouds,330,2014-01-14 19:15:00
1:35 PM,14.9,5.4,66,29.93,10.0,NNW,11.5,-,N/A,,Clear,340,2014-01-14 19:35:00
1:55 PM,15.1,5.0,64,29.93,10.0,North,11.5,-,N/A,,Clear,350,2014-01-14 19:55:00
2:15 PM,15.4,4.8,63,29.94,10.0,NNW,9.2,-,N/A,,Clear,340,2014-01-14 20:15:00
2:35 PM,15.3,4.5,62,29.96,10.0,North,9.2,17.3,N/A,,Clear,350,2014-01-14 20:35:00
2:55 PM,15.1,3.7,61,29.96,10.0,North,9.2,-,N/A,,Scattered Clouds,350,2014-01-14 20:55:00
3:15 PM,14.7,3.7,62,29.98,10.0,North,9.2,-,N/A,,Scattered Clouds,350,2014-01-14 21:15:00
3:35 PM,14.0,3.2,62,29.99,10.0,NNW,8.1,-,N/A,,Clear,340,2014-01-14 21:35:00
3:55 PM,13.8,3.2,63,29.99,10.0,North,4.6,-,N/A,,Clear,350,2014-01-14 21:55:00
4:15 PM,14.0,3.4,63,30.00,10.0,NW,9.2,-,N/A,,Clear,320,2014-01-14 22:15:00
4:35 PM,13.8,3.2,63,30.01,10.0,NNW,5.8,-,N/A,,Clear,340,2014-01-14 22:35:00
4:55 PM,12.9,3.0,65,30.02,10.0,NNW,5.8,-,N/A,,Clear,330,2014-01-14 22:55:00
5:15 PM,12.4,2.5,65,30.02,10.0,NNW,4.6,-,N/A,,Clear,340,2014-01-14 23:15:00
5:35 PM,11.1,1.6,66,30.03,10.0,NNW,6.9,-,N/A,,Clear,330,2014-01-14 23:35:00
5:55 PM,10.0,1.2,68,30.04,10.0,NW,9.2,-,N/A,,Clear,320,2014-01-14 23:55:00
6:15 PM,10.2,1.6,68,30.04,10.0,NW,10.4,-,N/A,,Clear,320,2014-01-15 00:15:00
6:35 PM,10.2,1.8,69,30.05,10.0,NW,5.8,-,N/A,,Clear,320,2014-01-15 00:35:00
6:55 PM,11.1,1.4,65,30.05,10.0,NNW,9.2,-,N/A,,Clear,330,2014-01-15 00:55:00
7:15 PM,9.9,1.0,68,30.06,10.0,NNW,12.7,-,N/A,,Clear,330,2014-01-15 01:15:00
7:35 PM,10.8,1.4,66,30.07,10.0,NNW,9.2,-,N/A,,Clear,330,2014-01-15 01:35:00
7:55 PM,11.1,1.4,65,30.07,10.0,NNW,9.2,-,N/A,,Clear,340,2014-01-15 01:55:00
8:15 PM,10.9,1.2,65,30.07,10.0,NNW,8.1,18.4,N/A,,Clear,340,2014-01-15 02:15:00
8:35 PM,10.2,1.4,68,30.07,10.0,NNW,9.2,17.3,N/A,,Clear,330,2014-01-15 02:35:00
8:55 PM,10.4,1.2,66,30.07,10.0,NNW,5.8,-,N/A,,Clear,340,2014-01-15 02:55:00
9:15 PM,9.7,0.5,66,30.08,10.0,NNW,6.9,-,N/A,,Clear,330,2014-01-15 03:15:00
9:35 PM,9.7,0.5,66,30.08,10.0,North,6.9,-,N/A,,Clear,360,2014-01-15 03:35:00
9:55 PM,9.0,0.3,68,30.09,10.0,North,11.5,17.3,N/A,,Clear,360,2014-01-15 03:55:00
10:15 PM,8.2,-0.0,69,30.08,10.0,NNW,8.1,-,N/A,,Clear,340,2014-01-15 04:15:00
10:35 PM,7.2,-0.8,70,30.09,10.0,NNW,6.9,-,N/A,,Clear,340,2014-01-15 04:35:00
10:55 PM,7.0,-0.9,70,30.09,10.0,North,8.1,-,N/A,,Clear,350,2014-01-15 04:55:00
11:15 PM,6.6,-1.1,71,30.09,10.0,NNW,5.8,-,N/A,,Scattered Clouds,330,2014-01-15 05:15:00
11:35 PM,5.2,-1.5,74,30.08,10.0,NW,5.8,-,N/A,,Mostly Cloudy,320,2014-01-15 05:35:00
11:55 PM,4.3,-1.7,76,30.08,10.0,NW,3.5,-,N/A,,Overcast,320,2014-01-15 05:55:00